Wind_Speed
35 35 37 37 37 38 38 38 38 37 37 34 33 33 31 30 29 29 28 28 27 28 27 26 26 26 25 24 24 24 22 21 21 20 20 20 20 20 20 20 20 20 20 20
36 36 38 38 38 38 38 39 39 38 38 36 35 34 33 32 32 31 30 30 29 31 30 28 28 28 27 27 27 26 24 24 24 23 23 23 24 24 24 23 23 23 22 22
36 37 37 38 38 39 39 39 40 41 41 40 38 37 35 35 34 35 33 32 31 31 31 31 31 30 30 28 28 28 28 27 27 27 27 27 27 27 26 27 26 25 25 25
37 36 39 37 36 39 40 39 39 40 41 40 38 37 37 36 35 36 35 34 33 33 33 33 32 32 32 33 32 32 31 30 29 29 30 30 29 29 29 29 29 28 28 28
38 38 38 37 36 36 38 38 38 38 40 41 41 41 40 39 37 36 35 34 34 34 34 34 34 34 34 34 34 34 34 34 33 32 33 33 33 33 33 33 32 31 31 31
37 37 37 36 36 36 37 38 37 37 38 39 40 41 41 40 39 38 36 36 35 35 36 36 36 37 37 37 37 36 36 36 36 36 36 36 35 36 36 36 36 36 35 34
36 37 38 37 37 37 38 38 37 37 37 37 39 41 41 40 40 38 38 38 37 37 38 38 38 38 38 39 40 40 39 39 40 39 39 40 39 39 39 39 39 38 37 36
36 36 37 36 38 38 37 37 39 39 39 39 39 41 41 41 40 39 39 39 39 38 38 39 38 39 39 41 41 41 41 41 41 42 42 43 43 42 41 41 40 40 39 37
34 34 35 35 36 38 38 38 38 39 40 40 40 40 40 40 39 40 40 39 40 39 39 39 39 40 40 40 41 42 42 42 43 43 43 44 44 44 44 44 43 42 41 38
33 34 34 34 35 35 36 37 38 38 38 39 39 40 41 40 39 39 40 40 40 41 40 40 40 40 40 40 41 42 43 44 44 44 45 45 46 46 46 46 45 43 42 40
33 33 34 35 35 35 36 36 35 36 36 37 38 38 39 39 39 39 39 39 41 41 40 40 40 40 40 40 41 42 42 43 44 45 46 46 47 47 46 45 43 43 42 41
33 34 35 34 35 35 35 35 35 36 37 37 38 38 39 38 38 39 39 38 39 39 40 41 41 42 42 41 42 42 43 44 45 45 46 46 46 46 44 43 42 43 43 42
32 33 34 34 35 36 36 35 36 35 36 38 38 38 39 38 38 38 38 38 39 40 40 41 41 41 42 42 43 43 44 44 44 44 44 44 43 43 43 43 43 43 42 41
31 32 34 34 35 35 36 36 37 36 36 37 38 37 36 36 36 37 38 38 39 40 40 40 41 42 42 43 43 44 44 44 44 43 43 43 43 43 43 42 42 42 42 42
31 30 31 31 31 32 32 33 34 34 34 35 36 36 36 35 35 36 37 38 39 39 40 40 40 41 42 42 42 43 43 43 43 43 43 43 43 43 42 41 41 42 42 42
27 28 29 29 30 30 31 32 32 32 33 34 35 36 36 36 36 36 37 37 38 39 39 39 40 40 40 41 41 42 41 41 42 42 42 42 42 42 42 41 41 41 41 40
24 25 25 26 27 28 29 30 31 31 32 32 33 33 34 34 34 34 35 36 37 37 37 38 38 39 39 39 39 40 40 40 39 39 39 40 39 40 39 39 39 39 39 39
23 23 23 23 24 25 25 26 28 29 30 31 32 32 32 32 32 32 33 34 34 35 36 36 37 37 37 37 37 37 37 37 36 37 37 37 37 37 37 37 37 36 36 36
19 20 21 22 22 22 24 26 27 28 28 30 31 31 30 30 31 31 31 31 32 32 33 34 34 34 33 33 33 33 34 34 34 34 34 33 34 35 35 35 35 34 34 35
18 19 20 20 21 22 23 24 25 27 27 28 28 28 27 28 28 29 29 29 29 29 29 30 30 30 30 30 30 30 30 29 29 29 30 30 31 32 32 32 32 31 32 32
16 17 19 20 21 21 21 22 23 25 26 27 26 25 26 26 26 25 25 26 26 26 26 26 26 27 27 27 27 27 27 26 26 26 27 28 28 29 30 30 30 29 29 29
15 16 17 18 19 19 19 20 20 21 22 22 22 22 23 23 23 23 23 24 24 24 23 23 23 23 23 24 24 25 24 24 24 25 26 27 27 27 27 27 27 27 27 28
14 15 15 15 16 16 16 17 17 17 17 16 17 18 19 20 20 21 21 22 22 21 21 21 21 20 21 21 22 22 22 22 23 23 23 24 25 24 24 25 26 26 26 27
13 13 13 13 14 14 14 14 15 16 15 15 15 16 17 17 18 18 19 19 19 19 19 19 18 18 17 18 18 18 19 19 20 20 21 21 22 23 23 23 23 24 25 25
12 11 11 11 11 12 13 13 14 14 14 14 15 15 15 15 15 15 15 15 15 16 16 16 16 16 16 16 16 16 16 17 18 19 19 19 19 19 20 20 21 23 23 24
10 11 11 11 11 11 12 12 13 13 13 13 14 14 14 13 13 13 13 14 14 15 15 15 15 15 15 16 16 16 16 17 17 18 19 18 18 18 18 19 21 21 21 21
10 10 11 11 11 11 12 12 12 12 12 12 13 12 12 12 12 12 13 13 14 14 14 15 15 15 15 15 16 16 16 17 17 17 16 17 17 18 17 18 19 19 19 20
Wind_Direction
237 234 232 230 231 232 234 237 241 245 247 247 248 250 252 255 259 262 262 263 263 264 267 269 269 269 269 271 273 271 271 274 277 279 281 282 282 284 287 289 290 289 289 291
239 237 236 235 233 234 235 236 240 244 245 245 246 249 251 253 258 262 261 261 264 267 265 266 267 268 267 268 269 268 268 270 272 274 276 278 280 282 285 287 288 287 286 286
241 239 240 239 237 237 237 240 242 244 246 246 246 249 252 254 256 258 258 260 264 268 267 267 268 269 269 270 267 267 267 268 270 273 274 275 277 280 282 283 283 284 285 285
244 242 240 240 239 239 238 239 240 243 244 245 246 249 252 255 257 258 258 260 262 266 268 269 270 269 269 269 269 268 268 269 270 272 274 274 274 275 277 279 279 278 281 282
244 243 242 239 239 241 240 240 241 243 243 244 246 250 252 254 257 257 255 258 262 267 269 269 270 270 270 269 269 270 271 270 270 272 272 273 274 275 277 277 277 276 277 278
245 244 241 239 238 241 243 243 243 244 244 246 248 251 253 254 256 257 258 261 262 264 266 267 267 268 269 269 267 268 270 271 272 272 271 271 272 274 275 275 276 276 275 275
244 244 243 240 238 242 245 245 246 245 245 248 250 252 256 258 259 259 260 262 262 264 266 267 266 267 267 267 267 267 268 269 270 271 273 274 274 274 274 275 276 276 277 275
243 245 245 243 241 243 246 246 245 245 246 248 251 254 258 260 261 262 265 265 266 266 267 268 267 267 268 268 268 267 269 270 271 271 272 274 275 276 276 276 276 277 277 276
245 246 247 246 245 246 246 246 247 247 247 250 253 255 258 259 261 263 266 267 268 268 268 268 268 268 268 268 268 268 268 269 270 271 272 273 274 274 274 275 276 276 278 277
246 247 248 248 249 247 246 248 248 249 250 253 255 258 260 261 263 264 266 267 268 269 270 268 268 268 267 267 267 267 268 268 269 270 271 272 273 273 273 273 273 273 274 275
248 249 249 250 249 248 248 249 252 253 255 256 257 259 261 263 264 265 267 268 268 270 269 268 269 268 267 267 267 269 269 269 269 270 271 271 272 273 274 273 272 273 273 273
249 250 250 250 250 249 251 253 253 254 254 256 258 260 261 263 265 266 267 269 270 270 269 269 271 271 270 270 270 269 269 270 271 271 272 272 272 272 271 273 274 274 275 275
249 250 252 251 251 251 254 254 254 255 255 257 259 262 263 264 267 267 268 268 270 270 270 271 271 272 273 273 272 270 270 270 270 272 272 273 272 271 272 272 272 272 273 274
248 250 251 251 251 251 252 253 254 256 259 261 262 264 264 265 267 268 270 270 271 273 272 272 273 273 273 272 272 271 270 270 270 271 272 272 273 273 273 271 269 270 271 273
249 251 251 252 252 253 253 252 254 257 261 263 263 265 267 268 269 270 271 271 272 273 273 274 274 274 273 273 272 272 271 270 270 271 272 272 273 273 273 273 271 270 271 271
248 250 252 253 253 254 255 255 255 257 260 263 265 267 268 270 271 271 272 272 273 274 275 275 275 275 274 274 273 272 272 272 271 270 271 271 272 273 273 273 272 272 271 270
250 251 253 256 256 256 257 258 258 259 261 262 264 267 269 271 271 271 272 273 275 277 277 277 276 276 276 275 274 274 272 271 272 272 271 271 271 271 272 273 272 271 271 270
253 254 255 259 261 258 259 260 262 263 264 265 267 269 271 272 273 274 275 276 277 277 277 278 278 277 277 275 275 274 272 272 271 271 272 271 271 271 271 272 272 271 270 268
255 256 258 260 261 261 261 264 266 267 270 270 270 271 273 274 276 277 277 278 279 279 279 279 279 277 276 275 275 274 274 273 272 272 271 271 269 270 271 271 271 271 269 269
259 261 260 261 264 267 267 268 270 271 272 273 273 273 274 275 276 278 279 278 278 280 281 281 280 277 277 276 274 275 275 274 274 272 270 271 271 271 271 272 271 271 270 269
262 265 265 265 268 270 270 273 274 274 274 275 275 274 275 277 279 279 279 278 278 281 283 284 283 281 279 277 276 275 275 275 275 274 273 274 273 272 272 271 270 270 270 269
265 267 268 269 270 271 272 278 280 279 279 278 276 276 277 279 280 281 281 281 279 281 283 285 287 284 282 279 277 274 275 277 276 275 275 275 274 274 271 269 270 270 270 269
265 265 268 271 274 276 277 281 282 282 283 284 284 282 281 281 282 283 283 283 281 281 283 286 288 286 283 281 279 276 276 277 278 277 276 276 275 273 271 269 268 269 271 270
270 271 271 273 276 279 282 283 285 285 287 290 290 288 286 285 286 286 286 285 280 279 282 286 288 287 286 286 285 283 282 280 280 281 280 279 277 275 273 271 270 271 273 271
272 274 278 281 283 285 285 288 291 294 295 294 294 294 294 292 289 289 288 286 284 284 284 287 290 290 290 288 286 285 285 283 282 284 284 282 280 276 275 275 274 273 274 273
277 277 281 286 288 287 289 292 295 297 298 299 297 295 295 294 293 292 294 294 294 294 291 289 290 292 291 291 288 285 286 285 281 283 283 281 281 282 281 279 279 278 277 276
279 279 280 282 286 288 291 293 295 299 301 300 299 297 296 295 295 297 299 300 300 298 295 294 295 294 292 292 290 291 292 291 291 290 290 289 288 287 288 286 283 282 281 281
Height
5830 5833 5835 5838 5842 5844 5845 5846 5847 5849 5852 5856 5858 5861 5863 5864 5865 5866 5867 5868 5869 5870 5871 5873 5873 5873 5872 5872 5872 5872 5872 5871 5871 5870 5869 5869 5868 5866 5865 5864 5863 5862 5860 5859
5821 5824 5826 5829 5833 5835 5836 5837 5838 5841 5844 5847 5850 5853 5855 5857 5858 5858 5859 5860 5861 5861 5862 5864 5865 5865 5864 5865 5865 5865 5864 5864 5864 5863 5863 5862 5860 5859 5858 5857 5856 5855 5854 5852
5812 5815 5817 5820 5824 5825 5827 5829 5831 5832 5836 5839 5842 5845 5847 5849 5850 5851 5852 5853 5853 5853 5854 5856 5856 5856 5856 5856 5856 5856 5856 5855 5855 5855 5854 5853 5853 5852 5851 5850 5848 5847 5846 5845
5802 5805 5807 5813 5814 5815 5818 5820 5822 5824 5826 5829 5833 5836 5839 5840 5841 5842 5843 5844 5845 5845 5847 5847 5847 5847 5847 5847 5847 5847 5847 5846 5845 5846 5845 5845 5844 5843 5842 5841 5840 5839 5837 5836
5792 5794 5797 5803 5805 5807 5808 5810 5813 5815 5818 5821 5824 5827 5829 5830 5832 5832 5833 5835 5836 5837 5837 5837 5837 5838 5838 5838 5838 5838 5837 5837 5836 5836 5836 5836 5835 5834 5833 5832 5831 5829 5828 5827
5782 5784 5787 5794 5797 5797 5800 5802 5804 5806 5810 5813 5816 5818 5820 5821 5822 5824 5824 5826 5827 5827 5827 5827 5827 5828 5828 5828 5828 5827 5827 5827 5826 5825 5825 5825 5825 5824 5823 5822 5820 5819 5818 5817
5773 5775 5778 5784 5787 5789 5792 5795 5797 5798 5801 5804 5806 5808 5810 5811 5813 5814 5815 5816 5817 5817 5817 5817 5817 5817 5817 5817 5817 5817 5816 5817 5817 5816 5815 5815 5813 5812 5811 5811 5809 5808 5807 5806
5764 5766 5771 5775 5777 5780 5782 5785 5787 5790 5793 5795 5797 5798 5800 5801 5802 5803 5803 5804 5805 5806 5806 5806 5806 5806 5806 5806 5806 5806 5806 5805 5805 5805 5805 5803 5802 5801 5799 5798 5798 5797 5796 5795
5757 5760 5762 5765 5768 5770 5772 5775 5778 5781 5784 5786 5787 5788 5790 5791 5792 5792 5793 5794 5794 5795 5795 5794 5794 5794 5794 5794 5794 5794 5793 5793 5793 5792 5792 5791 5790 5789 5788 5787 5786 5785 5785 5784
5749 5751 5754 5756 5758 5761 5763 5765 5768 5771 5773 5776 5777 5778 5779 5780 5781 5781 5782 5783 5783 5783 5783 5782 5782 5782 5781 5781 5781 5781 5781 5781 5780 5780 5779 5778 5777 5776 5775 5774 5773 5773 5772 5771
5741 5743 5745 5748 5749 5751 5753 5756 5759 5762 5764 5765 5767 5768 5769 5769 5770 5770 5771 5772 5772 5771 5771 5770 5770 5769 5769 5769 5768 5768 5767 5767 5767 5766 5766 5765 5764 5763 5761 5760 5759 5760 5759 5759
5734 5735 5737 5739 5741 5743 5745 5747 5749 5752 5754 5755 5756 5756 5757 5758 5758 5759 5759 5760 5759 5759 5759 5758 5757 5757 5757 5756 5755 5755 5755 5754 5753 5753 5752 5751 5751 5750 5748 5748 5748 5747 5746 5746
5725 5726 5728 5730 5732 5734 5736 5737 5739 5741 5743 5744 5745 5745 5745 5746 5747 5747 5747 5747 5747 5747 5746 5745 5745 5744 5743 5742 5742 5741 5741 5740 5740 5738 5738 5737 5736 5736 5735 5735 5734 5734 5733 5733
5717 5718 5719 5721 5722 5725 5726 5727 5729 5731 5732 5734 5734 5734 5734 5734 5735 5735 5735 5734 5734 5733 5733 5732 5732 5731 5730 5729 5728 5727 5727 5726 5726 5725 5724 5724 5724 5723 5722 5722 5721 5721 5721 5720
5708 5709 5710 5711 5713 5715 5716 5717 5719 5721 5723 5724 5724 5724 5724 5724 5723 5723 5723 5722 5722 5721 5721 5720 5719 5718 5717 5715 5715 5714 5713 5713 5712 5712 5711 5711 5710 5710 5709 5709 5708 5708 5708 5707
5700 5701 5702 5702 5704 5706 5708 5709 5711 5712 5713 5714 5714 5713 5713 5713 5712 5712 5712 5711 5710 5709 5708 5707 5706 5705 5703 5702 5701 5700 5699 5699 5699 5699 5698 5698 5697 5697 5697 5696 5696 5696 5696 5696
5693 5694 5695 5696 5697 5699 5700 5701 5702 5703 5704 5704 5703 5703 5702 5702 5702 5701 5701 5700 5698 5697 5696 5695 5693 5691 5690 5688 5687 5686 5686 5686 5685 5685 5685 5685 5685 5685 5684 5684 5684 5684 5684 5684
5687 5688 5689 5690 5690 5691 5692 5693 5693 5694 5694 5694 5693 5693 5692 5692 5692 5691 5690 5689 5688 5686 5684 5683 5681 5679 5677 5676 5674 5673 5673 5673 5673 5673 5673 5673 5673 5673 5673 5673 5672 5672 5672 5672
5680 5682 5682 5683 5684 5684 5685 5685 5685 5685 5685 5684 5684 5683 5683 5682 5682 5681 5680 5678 5677 5675 5673 5671 5669 5667 5665 5664 5663 5662 5661 5661 5661 5662 5662 5661 5661 5661 5661 5661 5661 5660 5661 5661
5675 5676 5676 5677 5677 5678 5678 5678 5678 5677 5677 5676 5675 5674 5674 5673 5672 5671 5670 5669 5667 5665 5663 5661 5659 5657 5655 5654 5653 5652 5652 5651 5651 5651 5651 5651 5651 5651 5651 5651 5651 5650 5650 5650
5670 5671 5671 5671 5672 5672 5672 5672 5670 5670 5669 5668 5667 5665 5665 5664 5663 5662 5661 5660 5658 5656 5654 5651 5649 5647 5646 5645 5644 5644 5643 5643 5642 5642 5642 5641 5641 5641 5641 5641 5640 5640 5640 5640
5665 5666 5666 5666 5666 5666 5666 5665 5664 5662 5661 5659 5659 5658 5657 5656 5655 5654 5653 5651 5650 5648 5646 5644 5642 5639 5638 5636 5636 5635 5635 5634 5634 5634 5633 5633 5632 5632 5632 5632 5631 5631 5631 5631
5661 5661 5661 5661 5661 5661 5660 5660 5658 5657 5655 5653 5652 5652 5650 5649 5649 5648 5646 5644 5642 5641 5639 5637 5636 5634 5632 5630 5629 5628 5627 5627 5627 5626 5625 5625 5624 5623 5623 5623 5623 5623 5623 5622
5656 5656 5656 5656 5656 5656 5656 5655 5654 5652 5651 5649 5647 5646 5645 5644 5643 5641 5640 5638 5636 5634 5633 5632 5630 5628 5626 5625 5623 5622 5621 5621 5620 5620 5619 5618 5617 5616 5616 5615 5615 5615 5614 5613
5653 5653 5653 5652 5652 5652 5651 5650 5649 5648 5646 5645 5643 5642 5640 5639 5638 5636 5634 5632 5631 5629 5628 5627 5625 5623 5622 5620 5619 5618 5617 5615 5615 5614 5613 5611 5611 5610 5609 5608 5608 5607 5606 5605
5649 5649 5649 5649 5649 5648 5647 5646 5645 5644 5642 5641 5639 5637 5636 5634 5633 5632 5630 5629 5627 5625 5623 5622 5620 5619 5618 5617 5615 5614 5612 5611 5610 5609 5607 5606 5605 5604 5603 5602 5601 5600 5598 5597
5646 5646 5646 5646 5645 5645 5644 5642 5641 5640 5638 5637 5635 5633 5632 5631 5630 5628 5627 5625 5623 5621 5620 5618 5616 5615 5614 5612 5611 5609 5608 5606 5605 5604 5602 5600 5599 5598 5597 5596 5594 5593 5592 5591